Weather History for Montego Bay, Jamaica

Change the Weather History Date:

Monday, March 18, 2013

  Actual Average Record
Temperature  
Mean Temperature 80 °F -  
Max Temperature 88 °F 83 °F 89 °F (2003)
Min Temperature 73 °F 74 °F 71 °F (1997)
Cooling Degree Days 16    
Growing Degree Days 30 (Base 50)    
Moisture  
Dew Point 69 °F    
Average Humidity 70    
Maximum Humidity 78    
Minimum Humidity 57    
Precipitation  
Precipitation 0.00 in - - ()
Sea Level Pressure  
Sea Level Pressure 29.98 in    
Wind  
Wind Speed 7 mph ()    
Max Wind Speed 22 mph    
Max Gust Speed -    
Visibility 8.3 miles    
Events      
Averages and records for this station are not official NWS values.
T = Trace of Precipitation, MM = Missing Value Source: Averaged Metar Reports

Daily Weather History Graph

Daily Weather History Graph

Search for Another Location

Airport:

Trip Planner

Search our weather history database for the weather conditions in past years. The results will help you decide how hot, cold, wet, or windy it might be!

Date:

Astronomy

Mar. 18, 2013 Rise Set
Actual Time 6:17 AM EST 6:22 PM EST
Civil Twilight 5:55 AM EST 6:44 PM EST
Nautical Twilight 5:30 AM EST 7:09 PM EST
Astronomical Twilight 5:04 AM EST 7:34 PM EST
Moon 11:01 AM EST No Moon Set
Length of Visible Light 12h 48m
Length of Day
12h 05m
Waxing Crescent, 41% of the Moon is Illuminated
Mar 18
Waxing Crescent
Mar 19
First Quarter
Mar 27
Full
Apr 2
Last Quarter
Apr 10
New

Hourly Weather History & Observations

Time (EST) Temp. Heat Index Dew Point Humidity Pressure Visibility Wind Dir Wind Speed Gust Speed Precip Events Conditions
12:00 AM 75.2 °F - 68.0 °F 78% 29.98 in 6.2 mi East 3.5 mph - N/A   Partly Cloudy
1:00 AM 75 °F - 68 °F 74% 29.99 in 12 mi West 2.3 mph - -   Scattered Clouds
1:00 AM 75.2 °F - 68.0 °F 78% 29.98 in 6.2 mi West 2.3 mph - N/A   Partly Cloudy
2:00 AM 77.0 °F - 66.2 °F 69% 29.95 in 6.2 mi SSE 8.1 mph - N/A   Partly Cloudy
3:00 AM 75.2 °F - 66.2 °F 73% 29.95 in 6.2 mi East 4.6 mph - N/A   Mostly Cloudy
4:00 AM 74 °F - 66 °F 70% 29.97 in 12 mi ESE 2.3 mph - -   Mostly Cloudy
4:00 AM 75.2 °F - 66.2 °F 73% 29.95 in 6.2 mi ESE 2.3 mph - N/A   Scattered Clouds
5:00 AM 75.2 °F - 66.2 °F 73% 29.98 in 6.2 mi East 3.5 mph - N/A   Mostly Cloudy
6:00 AM 75.2 °F - 66.2 °F 73% 29.98 in 6.2 mi SE 5.8 mph - N/A   Partly Cloudy
7:00 AM 74 °F - 66 °F 68% 30.02 in 16 mi SSE 2.3 mph - -   Haze
7:00 AM 73.4 °F - 66.2 °F 78% 30.01 in 6.2 mi SSE 2.3 mph - N/A   Partly Cloudy
8:00 AM 78.8 °F - 66.2 °F 65% 30.04 in 6.2 mi SE 6.9 mph - N/A   Partly Cloudy
9:00 AM 80.6 °F 83.2 °F 68.0 °F 65% 30.04 in 6.2 mi NE 9.2 mph - N/A   Partly Cloudy
10:00 AM 82 °F - 70 °F 59% 30.04 in 17 mi NE 11.5 mph - -   Haze
10:00 AM 82.4 °F 86.3 °F 69.8 °F 66% 30.04 in 6.2 mi NE 11.5 mph - N/A   Partly Cloudy
11:00 AM 82.4 °F 86.3 °F 69.8 °F 66% 30.01 in 6.2 mi ENE 16.1 mph - N/A   Partly Cloudy
12:00 PM 84.2 °F 89.6 °F 71.6 °F 66% 30.01 in 6.2 mi ENE 18.4 mph - N/A   Partly Cloudy
1:00 PM 83 °F - 72 °F 62% 29.99 in 17 mi ENE 19.6 mph - -   Haze
1:00 PM 82.4 °F 87.2 °F 71.6 °F 70% 29.98 in 6.2 mi ENE 19.6 mph - N/A   Partly Cloudy
2:00 PM 84.2 °F 90.9 °F 73.4 °F 70% 29.95 in 6.2 mi ENE 21.9 mph - N/A   Partly Cloudy
3:00 PM 82.4 °F 87.2 °F 71.6 °F 70% 29.95 in 6.2 mi ENE 18.4 mph - N/A   Scattered Clouds
4:00 PM 81 °F - 71 °F 66% 29.94 in 16 mi East 18.4 mph - -   Haze
4:00 PM 80.6 °F 84.6 °F 71.6 °F 74% 29.92 in 6.2 mi East 18.4 mph - N/A   Scattered Clouds
5:00 PM 80.6 °F 84.6 °F 71.6 °F 74% 29.92 in 6.2 mi East 16.1 mph - N/A   Scattered Clouds
6:00 PM 78.8 °F - 71.6 °F 78% 29.92 in 6.2 mi East 8.1 mph - N/A   Mostly Cloudy
7:00 PM 79 °F - 72 °F 74% 29.95 in 12 mi ESE 4.6 mph - -   Haze
7:00 PM 78.8 °F - 71.6 °F 78% 29.95 in 6.2 mi ESE 4.6 mph - N/A   Scattered Clouds
8:00 PM 80.6 °F 84.6 °F 71.6 °F 74% 29.95 in 6.2 mi SE 4.6 mph - N/A   Scattered Clouds
9:00 PM 78.8 °F - 69.8 °F 74% 29.98 in - SE 3.5 mph - N/A   Scattered Clouds
10:00 PM 79 °F - 67 °F 57% 29.99 in 12 mi SSE 3.5 mph - -   Partly Cloudy
10:00 PM 78.8 °F - 66.2 °F 65% 29.98 in 6.2 mi SSE 6.9 mph - N/A   Scattered Clouds
11:00 PM 78.8 °F - 66.2 °F 65% 29.98 in 6.2 mi SSE 8.1 mph - N/A   Partly Cloudy